Location: Rotheul
(50.2849°N, 11.2349°E)
Time: 08:23:17
(UTC+01:00)

ISS - Pass Details

Date: 12 November 2018
Orbit: 401 x 408 km, 51.6° (Epoch: 20 November)

Event Time Altitude Azimuth Distance (km) Brightness Sun altitude
Exits shadow 04:18:54 13° 108° (ESE) 1,287 -0.6 -29.4°
Drops below altitude 10° 04:19:20 10° 108° (ESE) 1,461 -0.3 -29.4°
Sets 04:21:24 0° 108° (ESE) 2,321 1.0 -29.0°
